Time,TemperatureF,DewpointF,PressureIn,WindDirection,WindDirectionDegrees,WindSpeedMPH,WindSpeedGustMPH,Humidity,HourlyPrecipIn,Conditions,Clouds,dailyrainin,SoftwareType,DateUTC
2013-02-17 00:10:00,31.7,21.0,29.63,North,350,1.0,-999.0,64,-99.99,,,0.00,weatherlink.com 1.10,2013-02-17 05:10:00,
2013-02-17 00:25:00,31.2,20.0,29.64,NNW,331,4.0,-999.0,64,-99.99,,,0.00,weatherlink.com 1.10,2013-02-17 05:25:00,
2013-02-17 00:40:00,30.9,20.0,29.63,North,9,0.0,-999.0,63,-99.99,,,0.00,weatherlink.com 1.10,2013-02-17 05:40:00,
2013-02-17 00:56:00,30.7,19.0,29.63,NW,323,5.0,-999.0,62,-99.99,,,0.00,weatherlink.com 1.10,2013-02-17 05:56:00,
2013-02-17 01:11:00,30.4,19.0,29.63,NNW,338,3.0,-999.0,62,-99.99,,,0.00,weatherlink.com 1.10,2013-02-17 06:11:00,
2013-02-17 01:25:00,30.2,19.0,29.62,NNE,12,0.0,-999.0,64,-99.99,,,0.00,weatherlink.com 1.10,2013-02-17 06:25:00,
2013-02-17 01:40:00,29.8,20.0,29.61,NW,324,0.0,-999.0,66,-99.99,,,0.00,weatherlink.com 1.10,2013-02-17 06:40:00,
2013-02-17 01:56:00,29.3,19.0,29.59,NNW,342,0.0,-999.0,66,-99.99,,,0.00,weatherlink.com 1.10,2013-02-17 06:56:00,
2013-02-17 02:10:00,29.2,19.0,29.59,NNW,346,3.0,-999.0,65,-99.99,,,0.00,weatherlink.com 1.10,2013-02-17 07:10:00,
2013-02-17 02:26:00,29.3,17.0,29.60,NE,41,5.0,-999.0,60,-99.99,,,0.00,weatherlink.com 1.10,2013-02-17 07:26:00,
2013-02-17 02:40:00,29.4,17.0,29.58,WNW,287,1.0,-999.0,61,-99.99,,,0.00,weatherlink.com 1.10,2013-02-17 07:40:00,
2013-02-17 02:55:00,29.3,16.0,29.57,NNW,338,0.0,-999.0,58,-99.99,,,0.00,weatherlink.com 1.10,2013-02-17 07:55:00,
2013-02-17 03:10:00,29.4,15.0,29.55,NNW,338,3.0,-999.0,55,-99.99,,,0.00,weatherlink.com 1.10,2013-02-17 08:10:00,
2013-02-17 03:25:00,28.7,13.0,29.55,NNW,331,7.0,-999.0,53,-99.99,,,0.00,weatherlink.com 1.10,2013-02-17 08:25:00,
2013-02-17 03:40:00,28.1,13.0,29.55,NNW,333,7.0,-999.0,53,-99.99,,,0.00,weatherlink.com 1.10,2013-02-17 08:40:00,
2013-02-17 03:55:00,27.8,13.0,29.53,NW,320,6.0,-999.0,54,-99.99,,,0.00,weatherlink.com 1.10,2013-02-17 08:55:00,
2013-02-17 04:11:00,27.3,13.0,29.52,NW,323,2.0,-999.0,56,-99.99,,,0.00,weatherlink.com 1.10,2013-02-17 09:11:00,
2013-02-17 04:25:00,26.6,15.0,29.52,NW,317,2.0,-999.0,62,-99.99,,,0.00,weatherlink.com 1.10,2013-02-17 09:25:00,
2013-02-17 04:40:00,25.3,17.0,29.50,NNW,346,1.0,-999.0,70,-99.99,,,0.00,weatherlink.com 1.10,2013-02-17 09:40:00,
2013-02-17 04:55:00,24.4,18.0,29.50,East,88,4.0,-999.0,76,-99.99,,,0.00,weatherlink.com 1.10,2013-02-17 09:55:00,
2013-02-17 05:10:00,24.1,18.0,29.50,NNW,337,2.0,-999.0,77,-99.99,,,0.00,weatherlink.com 1.10,2013-02-17 10:10:00,
2013-02-17 05:25:00,23.8,18.0,29.49,NNW,338,2.0,-999.0,78,-99.99,,,0.00,weatherlink.com 1.10,2013-02-17 10:25:00,
2013-02-17 05:41:00,23.6,18.0,29.48,NNW,337,14.0,-999.0,80,-99.99,,,0.00,weatherlink.com 1.10,2013-02-17 10:41:00,
2013-02-17 05:55:00,22.8,19.0,29.48,NNW,334,7.0,-999.0,85,-99.99,,,0.00,weatherlink.com 1.10,2013-02-17 10:55:00,
2013-02-17 06:10:00,21.8,19.0,29.46,NNW,331,3.0,-999.0,88,-99.99,,,0.00,weatherlink.com 1.10,2013-02-17 11:10:00,
2013-02-17 06:25:00,21.2,19.0,29.44,ENE,78,1.0,-999.0,90,-99.99,,,0.00,weatherlink.com 1.10,2013-02-17 11:25:00,
2013-02-17 06:40:00,20.7,19.0,29.43,NNE,19,4.0,-999.0,91,-99.99,,,0.00,weatherlink.com 1.10,2013-02-17 11:40:00,
2013-02-17 06:56:00,20.4,18.0,29.43,North,355,4.0,-999.0,91,-99.99,,,0.00,weatherlink.com 1.10,2013-02-17 11:56:00,
2013-02-17 07:10:00,20.1,18.0,29.42,NW,325,8.0,-999.0,91,-99.99,,,0.00,weatherlink.com 1.10,2013-02-17 12:10:00,
2013-02-17 07:26:00,20.0,18.0,29.42,North,5,3.0,-999.0,91,-99.99,,,0.00,weatherlink.com 1.10,2013-02-17 12:26:00,
2013-02-17 07:41:00,19.8,18.0,29.40,NNW,346,4.0,-999.0,91,-99.99,,,0.00,weatherlink.com 1.10,2013-02-17 12:41:00,
2013-02-17 07:56:00,19.6,17.0,29.39,NNE,32,2.0,-999.0,91,-99.99,,,0.00,weatherlink.com 1.10,2013-02-17 12:56:00,
2013-02-17 08:10:00,19.4,17.0,29.38,West,281,7.0,-999.0,91,-99.99,,,0.00,weatherlink.com 1.10,2013-02-17 13:10:00,
2013-02-17 08:25:00,19.2,17.0,29.38,NNW,338,1.0,-999.0,91,-99.99,,,0.00,weatherlink.com 1.10,2013-02-17 13:25:00,
2013-02-17 08:41:00,19.1,17.0,29.37,North,5,11.0,-999.0,91,-99.99,,,0.00,weatherlink.com 1.10,2013-02-17 13:41:00,
2013-02-17 08:55:00,19.0,17.0,29.36,NW,312,8.0,-999.0,92,-99.99,,,0.00,weatherlink.com 1.10,2013-02-17 13:55:00,
2013-02-17 09:10:00,18.9,17.0,29.34,NNW,339,8.0,-999.0,92,-99.99,,,0.00,weatherlink.com 1.10,2013-02-17 14:10:00,
2013-02-17 09:25:00,18.9,17.0,29.34,NW,321,5.0,-999.0,92,-99.99,,,0.00,weatherlink.com 1.10,2013-02-17 14:25:00,
2013-02-17 09:40:00,18.8,17.0,29.33,North,9,6.0,-999.0,92,-99.99,,,0.00,weatherlink.com 1.10,2013-02-17 14:40:00,
2013-02-17 09:55:00,18.9,17.0,29.33,North,5,7.0,-999.0,92,-99.99,,,0.00,weatherlink.com 1.10,2013-02-17 14:55:00,
2013-02-17 10:11:00,18.8,17.0,29.32,NNW,333,10.0,-999.0,92,-99.99,,,0.00,weatherlink.com 1.10,2013-02-17 15:11:00,
2013-02-17 10:25:00,18.8,17.0,29.32,WNW,298,5.0,-999.0,92,-99.99,,,0.00,weatherlink.com 1.10,2013-02-17 15:25:00,
2013-02-17 10:40:00,19.0,17.0,29.32,NNW,339,4.0,-999.0,92,-99.99,,,0.00,weatherlink.com 1.10,2013-02-17 15:40:00,
2013-02-17 10:55:00,19.1,17.0,29.32,NNW,340,9.0,-999.0,92,-99.99,,,0.00,weatherlink.com 1.10,2013-02-17 15:55:00,
2013-02-17 11:10:00,19.1,17.0,29.32,NNW,337,15.0,-999.0,92,-99.99,,,0.00,weatherlink.com 1.10,2013-02-17 16:10:00,
2013-02-17 11:25:00,19.4,18.0,29.32,North,355,7.0,-999.0,92,-99.99,,,0.00,weatherlink.com 1.10,2013-02-17 16:25:00,
2013-02-17 11:40:00,19.5,18.0,29.31,North,360,13.0,-999.0,92,-99.99,,,0.00,weatherlink.com 1.10,2013-02-17 16:40:00,
2013-02-17 11:55:00,19.6,18.0,29.31,NNW,336,5.0,-999.0,92,-99.99,,,0.00,weatherlink.com 1.10,2013-02-17 16:55:00,
2013-02-17 12:10:00,19.7,18.0,29.31,NW,317,10.0,-999.0,92,-99.99,,,0.00,weatherlink.com 1.10,2013-02-17 17:10:00,
2013-02-17 12:25:00,19.8,18.0,29.32,NNW,344,10.0,-999.0,91,-99.99,,,0.00,weatherlink.com 1.10,2013-02-17 17:25:00,
2013-02-17 12:40:00,20.0,18.0,29.32,NNW,335,10.0,-999.0,91,-99.99,,,0.00,weatherlink.com 1.10,2013-02-17 17:40:00,
2013-02-17 12:55:00,20.3,18.0,29.32,WNW,289,8.0,-999.0,91,-99.99,,,0.00,weatherlink.com 1.10,2013-02-17 17:55:00,
2013-02-17 13:10:00,20.6,18.0,29.32,North,350,7.0,-999.0,90,-99.99,,,0.00,weatherlink.com 1.10,2013-02-17 18:10:00,
2013-02-17 13:25:00,20.9,18.0,29.32,NW,315,7.0,-999.0,89,-99.99,,,0.00,weatherlink.com 1.10,2013-02-17 18:25:00,
2013-02-17 13:40:00,21.5,18.0,29.32,NNW,346,7.0,-999.0,87,-99.99,,,0.01,weatherlink.com 1.10,2013-02-17 18:40:00,
2013-02-17 13:55:00,21.7,18.0,29.32,NNE,23,3.0,-999.0,84,-99.99,,,0.01,weatherlink.com 1.10,2013-02-17 18:55:00,
2013-02-17 14:10:00,22.1,17.0,29.32,NNW,341,15.0,-999.0,82,-99.99,,,0.01,weatherlink.com 1.10,2013-02-17 19:10:00,
2013-02-17 14:25:00,22.7,15.0,29.33,NNW,333,19.0,-999.0,71,-99.99,,,0.01,weatherlink.com 1.10,2013-02-17 19:25:00,
2013-02-17 14:40:00,23.2,11.0,29.33,NW,307,16.0,-999.0,60,-99.99,,,0.01,weatherlink.com 1.10,2013-02-17 19:40:00,
2013-02-17 14:55:00,23.5,10.0,29.34,North,355,14.0,-999.0,56,-99.99,,,0.01,weatherlink.com 1.10,2013-02-17 19:55:00,
2013-02-17 15:10:00,23.5,8.0,29.34,NW,325,8.0,-999.0,52,-99.99,,,0.01,weatherlink.com 1.10,2013-02-17 20:10:00,
2013-02-17 15:25:00,23.8,7.0,29.35,NNW,337,10.0,-999.0,49,-99.99,,,0.01,weatherlink.com 1.10,2013-02-17 20:25:00,
2013-02-17 15:40:00,23.8,7.0,29.36,NNW,345,6.0,-999.0,49,-99.99,,,0.01,weatherlink.com 1.10,2013-02-17 20:40:00,
2013-02-17 15:55:00,23.1,6.0,29.37,NW,326,5.0,-999.0,49,-99.99,,,0.01,weatherlink.com 1.10,2013-02-17 20:55:00,
2013-02-17 16:10:00,22.8,6.0,29.38,NNW,344,6.0,-999.0,49,-99.99,,,0.01,weatherlink.com 1.10,2013-02-17 21:10:00,
2013-02-17 16:25:00,22.6,6.0,29.39,WSW,248,3.0,-999.0,49,-99.99,,,0.01,weatherlink.com 1.10,2013-02-17 21:25:00,
2013-02-17 16:40:00,22.5,5.0,29.40,NW,306,16.0,-999.0,48,-99.99,,,0.01,weatherlink.com 1.10,2013-02-17 21:40:00,
2013-02-17 16:55:00,22.4,5.0,29.41,West,266,19.0,-999.0,47,-99.99,,,0.01,weatherlink.com 1.10,2013-02-17 21:55:00,
2013-02-17 17:10:00,22.4,5.0,29.41,NW,305,4.0,-999.0,47,-99.99,,,0.01,weatherlink.com 1.10,2013-02-17 22:10:00,
2013-02-17 17:25:00,22.4,5.0,29.43,NNW,346,13.0,-999.0,47,-99.99,,,0.01,weatherlink.com 1.10,2013-02-17 22:25:00,
2013-02-17 17:40:00,22.4,5.0,29.43,NNW,338,18.0,-999.0,47,-99.99,,,0.01,weatherlink.com 1.10,2013-02-17 22:40:00,
2013-02-17 17:55:00,22.5,4.0,29.44,NNW,336,8.0,-999.0,46,-99.99,,,0.01,weatherlink.com 1.10,2013-02-17 22:55:00,
2013-02-17 18:10:00,22.4,5.0,29.44,NNW,342,2.0,-999.0,47,-99.99,,,0.01,weatherlink.com 1.10,2013-02-17 23:10:00,
2013-02-17 18:25:00,22.4,5.0,29.44,North,360,18.0,-999.0,47,-99.99,,,0.01,weatherlink.com 1.10,2013-02-17 23:25:00,
2013-02-17 18:40:00,22.3,5.0,29.44,NNW,329,8.0,-999.0,47,-99.99,,,0.01,weatherlink.com 1.10,2013-02-17 23:40:00,
2013-02-17 18:55:00,22.3,5.0,29.45,WNW,282,5.0,-999.0,47,-99.99,,,0.01,weatherlink.com 1.10,2013-02-17 23:55:00,
2013-02-17 19:10:00,22.2,5.0,29.45,SW,233,5.0,-999.0,47,-99.99,,,0.01,weatherlink.com 1.10,2013-02-18 00:10:00,
2013-02-17 19:40:00,22.1,5.0,29.46,NNW,340,8.0,-999.0,47,-99.99,,,0.01,weatherlink.com 1.10,2013-02-18 00:40:00,
2013-02-17 19:55:00,22.0,4.0,29.47,NW,313,13.0,-999.0,46,-99.99,,,0.01,weatherlink.com 1.10,2013-02-18 00:55:00,
2013-02-17 20:10:00,22.0,4.0,29.48,NNW,346,6.0,-999.0,47,-99.99,,,0.01,weatherlink.com 1.10,2013-02-18 01:10:00,
2013-02-17 20:40:00,21.9,4.0,29.51,NNW,345,12.0,-999.0,47,-99.99,,,0.01,weatherlink.com 1.10,2013-02-18 01:40:00,
2013-02-17 20:55:00,21.8,4.0,29.51,NW,304,14.0,-999.0,46,-99.99,,,0.01,weatherlink.com 1.10,2013-02-18 01:55:00,
2013-02-17 21:11:00,21.5,3.0,29.53,West,267,15.0,-999.0,45,-99.99,,,0.01,weatherlink.com 1.10,2013-02-18 02:11:00,
2013-02-17 21:25:00,21.0,3.0,29.54,NW,325,10.0,-999.0,46,-99.99,,,0.01,weatherlink.com 1.10,2013-02-18 02:25:00,
2013-02-17 21:40:00,20.7,3.0,29.55,WNW,302,20.0,-999.0,47,-99.99,,,0.01,weatherlink.com 1.10,2013-02-18 02:40:00,
2013-02-17 21:55:00,20.4,3.0,29.55,WNW,296,13.0,-999.0,47,-99.99,,,0.01,weatherlink.com 1.10,2013-02-18 02:55:00,
2013-02-17 22:10:00,19.9,3.0,29.56,NW,306,15.0,-999.0,47,-99.99,,,0.01,weatherlink.com 1.10,2013-02-18 03:10:00,
2013-02-17 22:25:00,19.7,3.0,29.57,West,263,8.0,-999.0,48,-99.99,,,0.01,weatherlink.com 1.10,2013-02-18 03:25:00,
2013-02-17 22:40:00,19.3,3.0,29.57,NW,313,11.0,-999.0,49,-99.99,,,0.01,weatherlink.com 1.10,2013-02-18 03:40:00,
2013-02-17 22:56:00,19.1,3.0,29.58,NNW,338,4.0,-999.0,50,-99.99,,,0.01,weatherlink.com 1.10,2013-02-18 03:56:00,
2013-02-17 23:10:00,18.8,3.0,29.59,North,351,1.0,-999.0,50,-99.99,,,0.01,weatherlink.com 1.10,2013-02-18 04:10:00,
2013-02-17 23:25:00,18.5,3.0,29.59,NW,313,10.0,-999.0,51,-99.99,,,0.01,weatherlink.com 1.10,2013-02-18 04:25:00,
2013-02-17 23:40:00,18.3,3.0,29.60,NNW,346,4.0,-999.0,52,-99.99,,,0.01,weatherlink.com 1.10,2013-02-18 04:40:00,
2013-02-17 23:55:00,18.1,3.0,29.60,NW,315,15.0,-999.0,51,-99.99,,,0.01,weatherlink.com 1.10,2013-02-18 04:55:00,